Location: Taupo
(38.6830°S, 176.0830°E)
Time: 16:46:51
(UTC+13:00)

Tiangong 2 - Pass Details

Date: 24 January 2019
Orbit: 381 x 390 km, 42.8° (Epoch: 16 February)

Event Time Altitude Azimuth Distance (km) Brightness Sun altitude
Rises 21:04:28 0° 255° (WSW) 2,286 6.9 -5.5°
Reaches altitude 10° 21:06:43 10° 266° (W) 1,424 5.1 -5.9°
Maximum altitude 21:09:33 29° 328° (NNW) 747 2.5 -6.4°
Drops below altitude 10° 21:12:21 10° 30° (NNE) 1,408 3.4 -6.8°
Enters shadow 21:12:54 - 34° (NE) 1,608 3.6 -6.9°
